TimeEDT,TemperatureF,Dew PointF,Humidity,Sea Level PressureIn,VisibilityMPH,Wind Direction,Wind SpeedMPH,Gust SpeedMPH,PrecipitationIn,Events,Conditions,WindDirDegrees,DateUTC
12:15 AM,71.6,69.8,94,30.23,10.0,ESE,6.9,-,N/A,,Clear,110,2013-07-14 04:15:00
12:35 AM,71.6,69.4,93,30.23,10.0,ESE,6.9,-,N/A,,Scattered Clouds,110,2013-07-14 04:35:00
12:55 AM,71.4,69.3,93,30.24,7.0,East,5.8,-,N/A,,Scattered Clouds,100,2013-07-14 04:55:00
1:15 AM,71.2,69.3,93,30.23,7.0,East,6.9,-,N/A,,Scattered Clouds,100,2013-07-14 05:15:00
1:35 AM,71.1,69.3,94,30.24,7.0,ESE,5.8,-,N/A,,Scattered Clouds,110,2013-07-14 05:35:00
1:55 AM,71.1,69.3,94,30.24,7.0,Calm,Calm,-,N/A,,Mostly Cloudy,0,2013-07-14 05:55:00
2:15 AM,70.7,68.9,94,30.24,7.0,Calm,Calm,-,N/A,,Mostly Cloudy,0,2013-07-14 06:15:00
2:35 AM,70.9,69.1,94,30.24,7.0,East,3.5,-,N/A,,Mostly Cloudy,100,2013-07-14 06:35:00
2:55 AM,70.5,68.9,95,30.24,7.0,East,3.5,-,N/A,,Mostly Cloudy,90,2013-07-14 06:55:00
3:15 AM,70.3,68.9,95,30.25,7.0,Calm,Calm,-,N/A,,Mostly Cloudy,0,2013-07-14 07:15:00
3:35 AM,70.2,68.5,95,30.25,7.0,East,3.5,-,N/A,,Scattered Clouds,90,2013-07-14 07:35:00
3:55 AM,69.8,68.2,95,30.24,7.0,East,3.5,-,N/A,,Clear,100,2013-07-14 07:55:00
4:15 AM,69.8,68.2,95,30.25,7.0,East,3.5,-,N/A,,Clear,90,2013-07-14 08:15:00
4:35 AM,70.0,68.4,95,30.26,7.0,Calm,Calm,-,N/A,,Clear,0,2013-07-14 08:35:00
4:55 AM,69.4,67.8,95,30.26,7.0,East,3.5,-,N/A,,Clear,80,2013-07-14 08:55:00
5:15 AM,69.3,67.6,95,30.27,5.0,East,3.5,-,N/A,,Clear,80,2013-07-14 09:15:00
5:35 AM,68.9,67.5,95,30.27,5.0,Calm,Calm,-,N/A,,Clear,0,2013-07-14 09:35:00
5:55 AM,68.9,67.3,95,30.28,3.0,Calm,Calm,-,N/A,,Clear,0,2013-07-14 09:55:00
6:15 AM,69.3,68.0,96,30.29,4.0,Calm,Calm,-,N/A,,Clear,0,2013-07-14 10:15:00
6:35 AM,69.1,67.6,95,30.29,4.0,Calm,Calm,-,N/A,,Scattered Clouds,0,2013-07-14 10:35:00
6:55 AM,69.6,68.0,95,30.29,4.0,Calm,Calm,-,N/A,,Mostly Cloudy,0,2013-07-14 10:55:00
7:15 AM,70.3,68.9,95,30.30,4.0,Calm,Calm,-,N/A,,Mostly Cloudy,0,2013-07-14 11:15:00
7:35 AM,71.1,69.8,96,30.31,1.8,East,3.5,-,N/A,,Overcast,80,2013-07-14 11:35:00
7:55 AM,72.0,70.5,95,30.30,2.0,East,6.9,-,N/A,,Overcast,90,2013-07-14 11:55:00
8:15 AM,72.5,71.1,95,30.31,2.5,East,3.5,-,N/A,,Overcast,90,2013-07-14 12:15:00
8:35 AM,73.6,71.8,94,30.32,4.0,ESE,4.6,-,N/A,,Overcast,110,2013-07-14 12:35:00
8:55 AM,74.7,72.1,92,30.33,7.0,ESE,5.8,-,N/A,,Overcast,110,2013-07-14 12:55:00
9:15 AM,75.6,72.1,89,30.33,10.0,ESE,5.8,-,N/A,,Overcast,120,2013-07-14 13:15:00
9:35 AM,77.0,72.1,85,30.33,10.0,East,6.9,-,N/A,,Mostly Cloudy,90,2013-07-14 13:35:00
9:55 AM,78.4,72.9,83,30.33,10.0,East,4.6,-,N/A,,Overcast,90,2013-07-14 13:55:00
10:15 AM,77.5,72.0,83,30.33,10.0,SE,4.6,-,N/A,,Mostly Cloudy,140,2013-07-14 14:15:00
10:35 AM,79.5,71.2,76,30.33,10.0,ESE,8.1,-,N/A,,Scattered Clouds,110,2013-07-14 14:35:00
10:55 AM,80.8,72.1,75,30.34,10.0,ESE,8.1,-,N/A,,Scattered Clouds,120,2013-07-14 14:55:00
11:15 AM,81.5,69.6,67,30.34,10.0,East,9.2,-,N/A,,Scattered Clouds,100,2013-07-14 15:15:00
11:35 AM,81.3,69.4,67,30.33,10.0,East,4.6,-,N/A,,Scattered Clouds,90,2013-07-14 15:35:00
11:55 AM,81.7,67.3,61,30.33,10.0,SSE,3.5,-,N/A,,Scattered Clouds,150,2013-07-14 15:55:00
12:15 PM,82.4,67.6,61,30.33,10.0,East,3.5,-,N/A,,Scattered Clouds,100,2013-07-14 16:15:00
12:35 PM,82.2,67.5,61,30.33,10.0,ESE,3.5,-,N/A,,Scattered Clouds,120,2013-07-14 16:35:00
12:55 PM,83.3,67.8,59,30.33,10.0,East,3.5,-,N/A,,Scattered Clouds,80,2013-07-14 16:55:00
1:15 PM,84.2,67.1,56,30.32,10.0,East,8.1,-,N/A,,Scattered Clouds,80,2013-07-14 17:15:00
1:35 PM,84.6,68.0,57,30.32,10.0,ENE,6.9,-,N/A,,Scattered Clouds,70,2013-07-14 17:35:00
1:55 PM,83.8,66.9,57,30.31,10.0,Calm,Calm,-,N/A,,Scattered Clouds,0,2013-07-14 17:55:00
2:15 PM,83.5,68.5,61,30.32,10.0,SSE,15.0,20.7,N/A,,Mostly Cloudy,150,2013-07-14 18:15:00
2:35 PM,75.2,68.7,80,30.32,10.0,SSW,9.2,-,N/A,Rain,Heavy Rain,200,2013-07-14 18:35:00
2:55 PM,76.5,71.6,85,30.32,10.0,WSW,3.5,-,N/A,,Overcast,250,2013-07-14 18:55:00
3:15 PM,80.6,71.6,74,30.30,10.0,Calm,Calm,-,N/A,,Scattered Clouds,0,2013-07-14 19:15:00
3:35 PM,82.8,70.5,66,30.30,10.0,Calm,Calm,-,0.01,,Clear,0,2013-07-14 19:35:00
3:55 PM,83.7,68.9,61,30.29,10.0,Calm,Calm,-,0.01,,Clear,0,2013-07-14 19:55:00
4:15 PM,84.2,70.0,62,30.28,10.0,Calm,Calm,-,N/A,,Scattered Clouds,0,2013-07-14 20:15:00
4:35 PM,84.4,70.3,63,30.28,10.0,NNE,3.5,-,N/A,,Scattered Clouds,30,2013-07-14 20:35:00
4:55 PM,81.1,70.9,71,30.28,10.0,NE,8.1,-,N/A,,Overcast,40,2013-07-14 20:55:00
5:15 PM,80.8,70.9,72,30.28,10.0,NE,6.9,-,N/A,,Scattered Clouds,50,2013-07-14 21:15:00
5:35 PM,82.8,70.7,67,30.27,10.0,NNE,4.6,-,N/A,,Clear,30,2013-07-14 21:35:00
5:55 PM,82.4,71.2,69,30.27,10.0,NE,3.5,-,N/A,,Clear,40,2013-07-14 21:55:00
6:15 PM,82.8,72.3,71,30.27,10.0,ENE,5.8,-,N/A,,Clear,70,2013-07-14 22:15:00
6:35 PM,82.4,72.9,73,30.27,10.0,NNE,3.5,-,N/A,,Clear,30,2013-07-14 22:35:00
6:55 PM,82.8,70.7,67,30.28,10.0,East,4.6,-,N/A,,Clear,80,2013-07-14 22:55:00
7:15 PM,82.4,69.8,66,30.28,10.0,ENE,3.5,-,N/A,,Clear,60,2013-07-14 23:15:00
7:35 PM,80.6,71.8,74,30.28,10.0,Calm,Calm,-,N/A,,Scattered Clouds,0,2013-07-14 23:35:00
7:55 PM,80.2,71.1,73,30.29,10.0,East,4.6,-,N/A,,Clear,90,2013-07-14 23:55:00
8:15 PM,79.3,70.7,75,30.29,10.0,East,4.6,-,N/A,,Clear,90,2013-07-15 00:15:00
8:35 PM,78.6,70.3,76,30.29,10.0,East,4.6,-,N/A,,Clear,100,2013-07-15 00:35:00
8:55 PM,77.5,70.7,79,30.29,10.0,Calm,Calm,-,N/A,,Clear,0,2013-07-15 00:55:00
9:15 PM,76.8,71.1,82,30.29,10.0,Calm,Calm,-,N/A,,Clear,0,2013-07-15 01:15:00
9:35 PM,76.3,71.8,86,30.30,7.0,Calm,Calm,-,N/A,,Clear,0,2013-07-15 01:35:00
9:55 PM,75.4,71.8,89,30.31,10.0,Calm,Calm,-,N/A,,Clear,0,2013-07-15 01:55:00
10:15 PM,74.8,71.8,90,30.31,10.0,East,3.5,-,N/A,,Clear,90,2013-07-15 02:15:00
10:35 PM,74.7,71.6,90,30.32,10.0,East,3.5,-,N/A,,Clear,100,2013-07-15 02:35:00
10:55 PM,75.4,71.4,87,30.32,10.0,East,3.5,-,N/A,,Clear,100,2013-07-15 02:55:00
11:15 PM,74.8,71.4,89,30.32,10.0,East,4.6,-,N/A,,Scattered Clouds,80,2013-07-15 03:15:00
11:35 PM,75.2,71.6,89,30.32,10.0,Calm,Calm,-,N/A,,Scattered Clouds,0,2013-07-15 03:35:00
11:55 PM,74.7,71.6,90,30.32,10.0,ESE,3.5,-,N/A,,Clear,110,2013-07-15 03:55:00